Name,Date (UTC),Temp (C),RGauge (mm),SWE (mm),SD (cm)
Longworth Upper,2020-09-21 00:00:00,,,,
Longworth Upper,2020-09-21 01:00:00,,,,
Longworth Upper,2020-09-21 02:00:00,,,,
Longworth Upper,2020-09-21 03:00:00,,,,
Longworth Upper,2020-09-21 04:00:00,,,,
Longworth Upper,2020-09-21 05:00:00,,,,
Longworth Upper,2020-09-21 06:00:00,,,,
Longworth Upper,2020-09-21 07:00:00,,,,
Longworth Upper,2020-09-21 08:00:00,,,,
Longworth Upper,2020-09-21 09:00:00,,,,
Longworth Upper,2020-09-21 10:00:00,,,,
Longworth Upper,2020-09-21 11:00:00,,,,
Longworth Upper,2020-09-21 12:00:00,,,,
Longworth Upper,2020-09-21 13:00:00,,,,
Longworth Upper,2020-09-21 14:00:00,,,,
Longworth Upper,2020-09-21 15:00:00,,,,
Longworth Upper,2020-09-21 16:00:00,,,,
Longworth Upper,2020-09-21 17:00:00,,,,
Longworth Upper,2020-09-21 18:00:00,,,,
Longworth Upper,2020-09-21 19:00:00,,,,
Longworth Upper,2020-09-21 20:00:00,,,,
Longworth Upper,2020-09-21 21:00:00,,,,
Longworth Upper,2020-09-21 22:00:00,,,,
Longworth Upper,2020-09-21 23:00:00,,,,
Longworth Upper,2020-09-22 00:00:00,,,,
Longworth Upper,2020-09-22 01:00:00,,,,
Longworth Upper,2020-09-22 02:00:00,,,,
Longworth Upper,2020-09-22 03:00:00,,,,
Longworth Upper,2020-09-22 04:00:00,,,,
Longworth Upper,2020-09-22 05:00:00,,,,
Longworth Upper,2020-09-22 06:00:00,,,,
Longworth Upper,2020-09-22 07:00:00,,,,
Longworth Upper,2020-09-22 08:00:00,,,,
Longworth Upper,2020-09-22 09:00:00,,,,
Longworth Upper,2020-09-22 10:00:00,,,,
Longworth Upper,2020-09-22 11:00:00,,,,
Longworth Upper,2020-09-22 12:00:00,,,,
Longworth Upper,2020-09-22 13:00:00,,,,
Longworth Upper,2020-09-22 14:00:00,,,,
Longworth Upper,2020-09-22 15:00:00,,,,
Longworth Upper,2020-09-22 16:00:00,,,,
Longworth Upper,2020-09-22 17:00:00,,,,
Longworth Upper,2020-09-22 18:00:00,,,,
Longworth Upper,2020-09-22 19:00:00,,,,
Longworth Upper,2020-09-22 20:00:00,,,,
Longworth Upper,2020-09-22 21:00:00,,,,
Longworth Upper,2020-09-22 22:00:00,16.4,344,0,
Longworth Upper,2020-09-22 23:00:00,16.3,343,0,
Longworth Upper,2020-09-23 00:00:00,13.8,343,0,
Longworth Upper,2020-09-23 01:00:00,12.1,343,0,
Longworth Upper,2020-09-23 02:00:00,9.1,343,0,
Longworth Upper,2020-09-23 03:00:00,7.2,344,0,
Longworth Upper,2020-09-23 04:00:00,6.3,344,0,
Longworth Upper,2020-09-23 05:00:00,5.7,344,0,
Longworth Upper,2020-09-23 06:00:00,6.1,344,0,
Longworth Upper,2020-09-23 07:00:00,7.3,344,0,
Longworth Upper,2020-09-23 08:00:00,8.5,344,0,
Longworth Upper,2020-09-23 09:00:00,8.7,344,0,
Longworth Upper,2020-09-23 10:00:00,7.8,344,0,
Longworth Upper,2020-09-23 11:00:00,7.8,344,0,
Longworth Upper,2020-09-23 12:00:00,9.7,344,0,
Longworth Upper,2020-09-23 13:00:00,9.4,344,0,
Longworth Upper,2020-09-23 16:00:00,9.8,344,0,
Longworth Upper,2020-09-23 17:00:00,10.6,344,0,
Longworth Upper,2020-09-23 18:00:00,11.9,344,0,
Longworth Upper,2020-09-23 19:00:00,11.6,344,0,
Longworth Upper,2020-09-23 20:00:00,10.8,344,0,
Longworth Upper,2020-09-23 21:00:00,10,344,0,
Longworth Upper,2020-09-23 22:00:00,8.4,345,1,
Longworth Upper,2020-09-23 23:00:00,8.1,346,2,
Longworth Upper,2020-09-24 00:00:00,8.1,346,2,
Longworth Upper,2020-09-24 01:00:00,8,346,2,
Longworth Upper,2020-09-24 02:00:00,8,346,2,
Longworth Upper,2020-09-24 03:00:00,7.9,346,2,
Longworth Upper,2020-09-24 04:00:00,7.6,347,3,
Longworth Upper,2020-09-24 05:00:00,7.4,347,2,
Longworth Upper,2020-09-24 06:00:00,6.9,347,2,
Longworth Upper,2020-09-24 07:00:00,3.7,353,4,
Longworth Upper,2020-09-24 08:00:00,4,354,2,
Longworth Upper,2020-09-24 09:00:00,3.5,354,2,
Longworth Upper,2020-09-24 10:00:00,2.8,354,2,
Longworth Upper,2020-09-24 11:00:00,2.4,354,2,
Longworth Upper,2020-09-24 12:00:00,2.5,354,2,
Longworth Upper,2020-09-24 13:00:00,3.8,354,2,
Longworth Upper,2020-09-24 14:00:00,4,354,1,
Longworth Upper,2020-09-24 15:00:00,4.4,354,2,
Longworth Upper,2020-09-24 16:00:00,4.8,354,2,
Longworth Upper,2020-09-24 17:00:00,5.2,354,2,
Longworth Upper,2020-09-24 18:00:00,6.6,354,2,
Longworth Upper,2020-09-24 19:00:00,6.3,354,2,
Longworth Upper,2020-09-24 20:00:00,6.3,354,2,
Longworth Upper,2020-09-24 21:00:00,6.1,355,2,
Longworth Upper,2020-09-24 22:00:00,6.3,355,2,
Longworth Upper,2020-09-24 23:00:00,6.8,356,2,
Longworth Upper,2020-09-25 00:00:00,6.6,356,2,
Longworth Upper,2020-09-25 01:00:00,5.9,356,2,
Longworth Upper,2020-09-25 02:00:00,5.4,356,2,
Longworth Upper,2020-09-25 03:00:00,4.8,356,2,
Longworth Upper,2020-09-25 04:00:00,4.1,356,2,
Longworth Upper,2020-09-25 05:00:00,3,356,2,
Longworth Upper,2020-09-25 06:00:00,1.6,356,2,
Longworth Upper,2020-09-25 07:00:00,0.7,357,2,
Longworth Upper,2020-09-25 08:00:00,0.5,357,2,
Longworth Upper,2020-09-25 09:00:00,1.2,357,2,
Longworth Upper,2020-09-25 10:00:00,1.3,357,2,
Longworth Upper,2020-09-25 11:00:00,1.7,357,2,
Longworth Upper,2020-09-25 12:00:00,1.8,357,1,
Longworth Upper,2020-09-25 13:00:00,2.7,356,2,
Longworth Upper,2020-09-25 14:00:00,3.6,356,2,
Longworth Upper,2020-09-25 15:00:00,3.2,357,2,
Longworth Upper,2020-09-25 16:00:00,3.1,358,2,
Longworth Upper,2020-09-25 17:00:00,3.4,358,2,
Longworth Upper,2020-09-25 18:00:00,3.8,358,2,
Longworth Upper,2020-09-25 19:00:00,4.3,357,2,
Longworth Upper,2020-09-25 20:00:00,5,357,2,
Longworth Upper,2020-09-25 21:00:00,4.7,358,2,
Longworth Upper,2020-09-25 22:00:00,4.6,360,3,
Longworth Upper,2020-09-25 23:00:00,4.8,365,2,
Longworth Upper,2020-09-26 00:00:00,5.4,365,2,
Longworth Upper,2020-09-26 01:00:00,4.8,365,2,
Longworth Upper,2020-09-26 02:00:00,3.8,365,2,
Longworth Upper,2020-09-26 03:00:00,3,365,2,
Longworth Upper,2020-09-26 04:00:00,2.2,365,2,
Longworth Upper,2020-09-26 05:00:00,2.2,365,2,
Longworth Upper,2020-09-26 06:00:00,2.2,365,2,
Longworth Upper,2020-09-26 07:00:00,2.4,365,2,
Longworth Upper,2020-09-26 08:00:00,2.1,365,2,
Longworth Upper,2020-09-26 09:00:00,1.7,365,2,
Longworth Upper,2020-09-26 10:00:00,1.6,365,2,
Longworth Upper,2020-09-26 11:00:00,1.8,365,2,
Longworth Upper,2020-09-26 12:00:00,1.7,365,2,
Longworth Upper,2020-09-26 13:00:00,1.1,366,2,
Longworth Upper,2020-09-26 14:00:00,1.6,366,2,
Longworth Upper,2020-09-26 15:00:00,2.3,365,2,
Longworth Upper,2020-09-26 16:00:00,3,365,2,
Longworth Upper,2020-09-26 17:00:00,4.3,365,2,
Longworth Upper,2020-09-26 18:00:00,5.3,365,2,
Longworth Upper,2020-09-26 19:00:00,6.1,365,1,
Longworth Upper,2020-09-26 20:00:00,4.5,365,2,
Longworth Upper,2020-09-26 21:00:00,3.4,366,3,
Longworth Upper,2020-09-26 22:00:00,3.6,366,3,
Longworth Upper,2020-09-26 23:00:00,4.8,367,3,
Longworth Upper,2020-09-27 00:00:00,4.3,367,2,
Longworth Upper,2020-09-27 01:00:00,2.6,367,2,
Longworth Upper,2020-09-27 02:00:00,1.3,367,2,
Longworth Upper,2020-09-27 03:00:00,1,367,2,
Longworth Upper,2020-09-27 04:00:00,1,367,2,
Longworth Upper,2020-09-27 05:00:00,1.4,367,2,
Longworth Upper,2020-09-27 06:00:00,1.6,367,2,
Longworth Upper,2020-09-27 07:00:00,1.1,367,2,
Longworth Upper,2020-09-27 08:00:00,0.7,367,2,
Longworth Upper,2020-09-27 09:00:00,-0.7,367,2,
Longworth Upper,2020-09-27 10:00:00,-1.2,367,2,
Longworth Upper,2020-09-27 11:00:00,-1.2,367,2,
Longworth Upper,2020-09-27 12:00:00,-1.5,368,2,
Longworth Upper,2020-09-27 13:00:00,-1.7,368,2,
Longworth Upper,2020-09-27 14:00:00,-1.8,368,2,
Longworth Upper,2020-09-27 15:00:00,-1.6,368,2,
Longworth Upper,2020-09-27 16:00:00,0.7,367,1,
Longworth Upper,2020-09-27 17:00:00,4.2,367,2,
Longworth Upper,2020-09-27 18:00:00,7.1,367,1,
Longworth Upper,2020-09-27 19:00:00,7.7,366,2,
Longworth Upper,2020-09-27 20:00:00,9.6,367,2,
Longworth Upper,2020-09-27 21:00:00,10.4,366,1,
Longworth Upper,2020-09-27 22:00:00,10.3,366,1,
Longworth Upper,2020-09-27 23:00:00,10.1,366,1,
Longworth Upper,2020-09-28 00:00:00,8.8,366,1,
Longworth Upper,2020-09-28 01:00:00,6.9,366,2,
Longworth Upper,2020-09-28 02:00:00,4.9,366,2,
Longworth Upper,2020-09-28 03:00:00,3.2,367,2,
Longworth Upper,2020-09-28 04:00:00,2.4,367,1,
Longworth Upper,2020-09-28 05:00:00,2.2,367,1,
Longworth Upper,2020-09-28 06:00:00,1.5,367,1,
Longworth Upper,2020-09-28 07:00:00,1.1,367,2,0
Longworth Upper,2020-09-28 08:00:00,0.9,367,1,0
Longworth Upper,2020-09-28 09:00:00,0.9,367,1,0
Longworth Upper,2020-09-28 10:00:00,1.4,367,1,
Longworth Upper,2020-09-28 11:00:00,1.3,367,1,0
Longworth Upper,2020-09-28 12:00:00,0.8,367,1,
Longworth Upper,2020-09-28 13:00:00,0,367,1,
